Time,TemperatureF,DewpointF,PressureIn,WindDirection,WindDirectionDegrees,WindSpeedMPH,WindSpeedGustMPH,Humidity,HourlyPrecipIn,Conditions,Clouds,dailyrainin,SoftwareType,DateUTC
2013-05-09 00:00:00,65.6,59.6,29.94,SW,227,0.0,4.0,81,0.00,,---,0.00,VWS V14.01,2013-05-09 05:00:00,
2013-05-09 00:02:00,65.2,59.2,29.93,SW,227,0.0,1.0,81,0.00,,---,0.00,VWS V14.01,2013-05-09 05:02:00,
2013-05-09 00:07:00,64.7,59.1,29.94,ENE,69,2.0,3.0,82,0.00,,---,0.00,VWS V14.01,2013-05-09 05:07:00,
2013-05-09 00:10:00,64.7,59.1,29.94,ENE,69,0.0,3.0,82,0.00,,---,0.00,VWS V14.01,2013-05-09 05:10:00,
2013-05-09 00:12:00,64.3,59.4,29.93,ENE,69,0.0,1.0,84,0.00,,---,0.00,VWS V14.01,2013-05-09 05:12:00,
2013-05-09 00:17:00,63.9,59.3,29.93,ENE,69,1.0,2.0,85,0.00,,---,0.00,VWS V14.01,2013-05-09 05:17:00,
2013-05-09 00:20:00,63.8,59.2,29.93,ENE,69,0.0,2.0,85,0.00,,---,0.00,VWS V14.01,2013-05-09 05:20:00,
2013-05-09 00:22:00,63.4,59.2,29.93,NE,46,0.0,2.0,86,0.00,,---,0.00,VWS V14.01,2013-05-09 05:22:00,
2013-05-09 00:27:00,63.0,59.1,29.93,NE,46,0.0,2.0,87,0.00,,---,0.00,VWS V14.01,2013-05-09 05:27:00,
2013-05-09 00:30:00,63.0,59.1,29.93,NE,46,0.0,2.0,87,0.00,,---,0.00,VWS V14.01,2013-05-09 05:30:00,
2013-05-09 00:32:00,62.8,59.2,29.92,NE,46,0.0,2.0,88,0.00,,---,0.00,VWS V14.01,2013-05-09 05:32:00,
2013-05-09 00:37:00,62.6,58.7,29.92,ESE,118,1.0,4.0,87,0.00,,---,0.00,VWS V14.01,2013-05-09 05:37:00,
2013-05-09 00:40:00,62.6,59.0,29.92,SE,140,2.0,6.0,88,0.00,,---,0.00,VWS V14.01,2013-05-09 05:40:00,
2013-05-09 00:42:00,62.4,58.8,29.92,East,82,1.0,2.0,88,0.00,,---,0.00,VWS V14.01,2013-05-09 05:42:00,
2013-05-09 00:47:00,62.2,58.6,29.93,East,92,0.0,4.0,88,0.00,,---,0.00,VWS V14.01,2013-05-09 05:47:00,
2013-05-09 00:50:00,62.2,58.6,29.93,East,92,1.0,4.0,88,0.00,,---,0.00,VWS V14.01,2013-05-09 05:50:00,
2013-05-09 00:52:00,62.0,58.4,29.93,SSE,162,0.0,2.0,88,0.00,,---,0.00,VWS V14.01,2013-05-09 05:52:00,
2013-05-09 00:57:00,61.8,58.2,29.94,ENE,78,0.0,3.0,88,0.00,,---,0.00,VWS V14.01,2013-05-09 05:57:00,
2013-05-09 01:00:00,61.8,58.2,29.95,ENE,78,0.0,3.0,88,0.00,,---,0.00,VWS V14.01,2013-05-09 06:00:00,
2013-05-09 01:02:00,61.8,58.2,29.95,East,79,0.0,3.0,88,0.00,,---,0.00,VWS V14.01,2013-05-09 06:02:00,
2013-05-09 01:07:00,61.6,58.3,29.95,East,79,0.0,3.0,89,0.00,,---,0.00,VWS V14.01,2013-05-09 06:07:00,
2013-05-09 01:10:00,61.6,58.3,29.95,East,79,0.0,3.0,89,0.00,,---,0.00,VWS V14.01,2013-05-09 06:10:00,
2013-05-09 01:13:00,61.6,58.3,29.95,East,79,0.0,0.0,89,0.00,,---,0.00,VWS V14.01,2013-05-09 06:13:00,
2013-05-09 01:18:00,61.5,58.2,29.95,East,79,0.0,0.0,89,0.00,,---,0.00,VWS V14.01,2013-05-09 06:18:00,
2013-05-09 01:20:00,61.5,58.2,29.95,East,79,0.0,0.0,89,0.00,,---,0.00,VWS V14.01,2013-05-09 06:20:00,
2013-05-09 01:23:00,61.5,58.2,29.95,SW,234,0.0,4.0,89,0.00,,---,0.00,VWS V14.01,2013-05-09 06:23:00,
2013-05-09 01:28:00,61.5,58.2,29.96,WSW,257,0.0,4.0,89,0.00,,---,0.00,VWS V14.01,2013-05-09 06:28:00,
2013-05-09 01:30:00,61.5,58.2,29.96,WSW,257,0.0,4.0,89,0.00,,---,0.00,VWS V14.01,2013-05-09 06:30:00,
2013-05-09 01:33:00,61.5,58.2,29.96,WSW,257,0.0,0.0,89,0.00,,---,0.00,VWS V14.01,2013-05-09 06:33:00,
2013-05-09 01:38:00,61.6,58.6,29.96,WSW,257,0.0,1.0,90,0.00,,---,0.00,VWS V14.01,2013-05-09 06:38:00,
2013-05-09 01:40:00,61.6,58.6,29.96,WSW,257,0.0,1.0,90,0.00,,---,0.00,VWS V14.01,2013-05-09 06:40:00,
2013-05-09 01:43:00,61.6,58.6,29.97,WSW,257,0.0,0.0,90,0.00,,---,0.00,VWS V14.01,2013-05-09 06:43:00,
2013-05-09 01:48:00,61.6,58.6,29.96,WSW,257,0.0,0.0,90,0.00,,---,0.00,VWS V14.01,2013-05-09 06:48:00,
2013-05-09 01:50:00,61.5,58.5,29.96,WSW,257,0.0,0.0,90,0.00,,---,0.00,VWS V14.01,2013-05-09 06:50:00,
2013-05-09 01:53:00,61.5,58.8,29.96,WSW,257,0.0,1.0,91,0.00,,---,0.00,VWS V14.01,2013-05-09 06:53:00,
2013-05-09 01:58:00,61.4,58.5,29.96,WSW,257,0.0,1.0,90,0.00,,---,0.00,VWS V14.01,2013-05-09 06:58:00,
2013-05-09 02:00:00,61.4,58.5,29.96,WSW,257,0.0,1.0,90,0.00,,---,0.00,VWS V14.01,2013-05-09 07:00:00,
2013-05-09 02:03:00,61.3,58.7,29.96,WSW,257,0.0,1.0,91,0.00,,---,0.00,VWS V14.01,2013-05-09 07:03:00,
2013-05-09 02:08:00,61.2,58.6,29.95,ENE,69,0.0,3.0,91,0.00,,---,0.00,VWS V14.01,2013-05-09 07:08:00,
2013-05-09 02:10:00,61.2,58.6,29.95,ENE,69,0.0,3.0,91,0.00,,---,0.00,VWS V14.01,2013-05-09 07:10:00,
2013-05-09 02:13:00,61.2,58.6,29.94,East,95,0.0,4.0,91,0.00,,---,0.00,VWS V14.01,2013-05-09 07:13:00,
2013-05-09 02:18:00,61.1,58.5,29.94,East,95,0.0,0.0,91,0.00,,---,0.00,VWS V14.01,2013-05-09 07:18:00,
2013-05-09 02:20:00,61.1,58.5,29.94,East,95,0.0,4.0,91,0.00,,---,0.00,VWS V14.01,2013-05-09 07:20:00,
2013-05-09 02:23:00,61.0,58.4,29.93,ESE,111,0.0,3.0,91,0.00,,---,0.00,VWS V14.01,2013-05-09 07:23:00,
2013-05-09 02:28:00,61.0,58.7,29.93,ESE,111,0.0,0.0,92,0.00,,---,0.00,VWS V14.01,2013-05-09 07:28:00,
2013-05-09 02:30:00,61.0,58.7,29.93,ESE,111,0.0,3.0,92,0.00,,---,0.00,VWS V14.01,2013-05-09 07:30:00,
2013-05-09 02:33:00,60.9,58.6,29.93,ESE,111,0.0,0.0,92,0.00,,---,0.00,VWS V14.01,2013-05-09 07:33:00,
2013-05-09 02:38:00,60.9,58.6,29.91,ESE,111,0.0,0.0,92,0.00,,---,0.00,VWS V14.01,2013-05-09 07:38:00,
2013-05-09 02:40:00,60.9,58.6,29.91,ESE,111,0.0,1.0,92,0.00,,---,0.00,VWS V14.01,2013-05-09 07:40:00,
2013-05-09 02:43:00,60.9,58.6,29.91,ESE,111,0.0,1.0,92,0.00,,---,0.00,VWS V14.01,2013-05-09 07:43:00,
2013-05-09 02:48:00,60.8,58.5,29.91,ESE,111,0.0,0.0,92,0.00,,---,0.00,VWS V14.01,2013-05-09 07:48:00,
2013-05-09 02:50:00,60.8,58.5,29.91,ESE,111,0.0,1.0,92,0.00,,---,0.00,VWS V14.01,2013-05-09 07:50:00,
2013-05-09 02:53:00,60.8,58.5,29.91,ESE,111,0.0,1.0,92,0.00,,---,0.00,VWS V14.01,2013-05-09 07:53:00,
2013-05-09 02:58:00,60.8,58.5,29.91,ESE,111,0.0,0.0,92,0.00,,---,0.00,VWS V14.01,2013-05-09 07:58:00,
2013-05-09 03:00:00,60.8,58.5,29.91,ESE,111,0.0,1.0,92,0.00,,---,0.00,VWS V14.01,2013-05-09 08:00:00,
2013-05-09 03:03:00,60.7,58.4,29.91,ESE,111,0.0,1.0,92,0.00,,---,0.00,VWS V14.01,2013-05-09 08:03:00,
2013-05-09 03:08:00,60.7,58.4,29.91,ESE,111,0.0,0.0,92,0.00,,---,0.00,VWS V14.01,2013-05-09 08:08:00,
2013-05-09 03:10:00,60.7,58.4,29.91,ESE,111,0.0,1.0,92,0.00,,---,0.00,VWS V14.01,2013-05-09 08:10:00,
2013-05-09 03:13:00,60.6,58.3,29.91,ESE,111,0.0,0.0,92,0.00,,---,0.00,VWS V14.01,2013-05-09 08:13:00,
2013-05-09 03:18:00,60.5,58.2,29.90,ESE,111,0.0,0.0,92,0.00,,---,0.00,VWS V14.01,2013-05-09 08:18:00,
2013-05-09 03:20:00,60.5,58.2,29.90,ESE,111,0.0,0.0,92,0.00,,---,0.00,VWS V14.01,2013-05-09 08:20:00,
2013-05-09 03:23:00,60.4,58.1,29.90,ESE,111,0.0,0.0,92,0.00,,---,0.00,VWS V14.01,2013-05-09 08:23:00,
2013-05-09 03:28:00,60.3,58.0,29.90,ESE,111,0.0,0.0,92,0.00,,---,0.00,VWS V14.01,2013-05-09 08:28:00,
2013-05-09 03:30:00,60.3,58.0,29.90,ESE,111,0.0,1.0,92,0.00,,---,0.00,VWS V14.01,2013-05-09 08:30:00,
2013-05-09 03:33:00,60.3,58.0,29.90,ESE,111,0.0,1.0,92,0.00,,---,0.00,VWS V14.01,2013-05-09 08:33:00,
2013-05-09 03:38:00,60.2,57.9,29.89,ESE,111,0.0,0.0,92,0.00,,---,0.00,VWS V14.01,2013-05-09 08:38:00,
2013-05-09 03:40:00,60.2,57.9,29.89,ESE,111,0.0,1.0,92,0.00,,---,0.00,VWS V14.01,2013-05-09 08:40:00,
2013-05-09 03:43:00,60.1,57.8,29.89,ESE,111,0.0,0.0,92,0.00,,---,0.00,VWS V14.01,2013-05-09 08:43:00,
2013-05-09 03:48:00,60.1,58.1,29.88,ESE,111,0.0,0.0,93,0.00,,---,0.00,VWS V14.01,2013-05-09 08:48:00,
2013-05-09 03:50:00,60.0,58.0,29.88,ESE,111,0.0,0.0,93,0.00,,---,0.00,VWS V14.01,2013-05-09 08:50:00,
2013-05-09 03:53:00,60.0,58.0,29.88,ESE,111,0.0,0.0,93,0.00,,---,0.00,VWS V14.01,2013-05-09 08:53:00,
2013-05-09 03:58:00,59.9,57.9,29.88,ESE,111,0.0,0.0,93,0.00,,---,0.00,VWS V14.01,2013-05-09 08:58:00,
2013-05-09 04:00:00,60.0,58.0,29.88,ESE,111,0.0,0.0,93,0.00,,---,0.00,VWS V14.01,2013-05-09 09:00:00,
2013-05-09 04:03:00,59.9,57.9,29.88,ESE,111,0.0,0.0,93,0.00,,---,0.00,VWS V14.01,2013-05-09 09:03:00,
2013-05-09 04:08:00,59.8,57.8,29.88,ESE,111,0.0,0.0,93,0.00,,---,0.00,VWS V14.01,2013-05-09 09:08:00,
2013-05-09 04:10:00,59.8,57.8,29.88,ESE,111,0.0,0.0,93,0.00,,---,0.00,VWS V14.01,2013-05-09 09:10:00,
2013-05-09 04:13:00,59.8,57.8,29.88,ESE,111,0.0,0.0,93,0.00,,---,0.00,VWS V14.01,2013-05-09 09:13:00,
2013-05-09 04:18:00,59.8,57.8,29.88,ESE,111,0.0,0.0,93,0.00,,---,0.00,VWS V14.01,2013-05-09 09:18:00,
2013-05-09 04:20:00,59.8,57.8,29.88,ESE,111,0.0,1.0,93,0.00,,---,0.00,VWS V14.01,2013-05-09 09:20:00,
2013-05-09 04:23:00,59.8,57.8,29.87,ESE,111,0.0,0.0,93,0.00,,---,0.00,VWS V14.01,2013-05-09 09:23:00,
2013-05-09 04:29:00,59.7,57.7,29.87,ESE,111,0.0,0.0,93,0.00,,---,0.00,VWS V14.01,2013-05-09 09:29:00,
2013-05-09 04:30:00,59.7,57.7,29.87,ESE,111,0.0,0.0,93,0.00,,---,0.00,VWS V14.01,2013-05-09 09:30:00,
2013-05-09 04:34:00,59.7,57.7,29.87,ESE,111,0.0,0.0,93,0.00,,---,0.00,VWS V14.01,2013-05-09 09:34:00,
2013-05-09 04:39:00,59.7,58.0,29.87,ESE,111,0.0,0.0,94,0.00,,---,0.00,VWS V14.01,2013-05-09 09:39:00,
2013-05-09 04:40:00,59.7,58.0,29.87,ESE,111,0.0,0.0,94,0.00,,---,0.00,VWS V14.01,2013-05-09 09:40:00,
2013-05-09 04:44:00,59.7,58.0,29.87,South,173,0.0,4.0,94,0.00,,---,0.00,VWS V14.01,2013-05-09 09:44:00,
2013-05-09 04:49:00,59.8,58.1,29.87,South,173,0.0,0.0,94,0.00,,---,0.00,VWS V14.01,2013-05-09 09:49:00,
2013-05-09 04:50:00,59.8,58.1,29.87,South,173,0.0,4.0,94,0.00,,---,0.00,VWS V14.01,2013-05-09 09:50:00,
2013-05-09 04:54:00,59.8,58.1,29.86,South,173,0.0,0.0,94,0.00,,---,0.00,VWS V14.01,2013-05-09 09:54:00,
2013-05-09 04:59:00,59.7,58.0,29.86,South,173,0.0,0.0,94,0.00,,---,0.00,VWS V14.01,2013-05-09 09:59:00,
2013-05-09 05:00:00,59.7,58.0,29.86,South,173,0.0,0.0,94,0.00,,---,0.00,VWS V14.01,2013-05-09 10:00:00,
2013-05-09 05:04:00,59.7,58.0,29.86,South,173,0.0,0.0,94,0.00,,---,0.00,VWS V14.01,2013-05-09 10:04:00,
2013-05-09 05:09:00,59.7,58.0,29.86,South,173,0.0,0.0,94,0.00,,---,0.00,VWS V14.01,2013-05-09 10:09:00,
2013-05-09 05:10:00,59.7,58.0,29.86,South,173,0.0,0.0,94,0.00,,---,0.00,VWS V14.01,2013-05-09 10:10:00,
2013-05-09 05:14:00,59.6,57.9,29.86,South,173,0.0,0.0,94,0.00,,---,0.00,VWS V14.01,2013-05-09 10:14:00,
2013-05-09 05:19:00,59.6,57.9,29.86,South,173,0.0,0.0,94,0.00,,---,0.00,VWS V14.01,2013-05-09 10:19:00,
2013-05-09 05:20:00,59.6,57.9,29.86,South,173,0.0,0.0,94,0.00,,---,0.00,VWS V14.01,2013-05-09 10:20:00,
2013-05-09 05:24:00,59.6,57.9,29.86,South,173,0.0,1.0,94,0.00,,---,0.00,VWS V14.01,2013-05-09 10:24:00,
2013-05-09 05:29:00,59.6,57.9,29.86,South,173,0.0,0.0,94,0.00,,---,0.00,VWS V14.01,2013-05-09 10:29:00,
2013-05-09 05:30:00,59.6,57.9,29.86,South,173,0.0,1.0,94,0.00,,---,0.00,VWS V14.01,2013-05-09 10:30:00,
2013-05-09 05:34:00,59.5,57.8,29.87,South,173,0.0,0.0,94,0.00,,---,0.00,VWS V14.01,2013-05-09 10:34:00,
2013-05-09 05:39:00,59.5,57.8,29.88,South,173,0.0,1.0,94,0.00,,---,0.00,VWS V14.01,2013-05-09 10:39:00,
2013-05-09 05:40:00,59.5,57.8,29.88,South,173,0.0,1.0,94,0.00,,---,0.00,VWS V14.01,2013-05-09 10:40:00,
2013-05-09 05:44:00,59.5,57.8,29.88,South,173,0.0,2.0,94,0.00,,---,0.00,VWS V14.01,2013-05-09 10:44:00,
2013-05-09 05:49:00,59.5,57.8,29.88,South,173,0.0,0.0,94,0.00,,---,0.00,VWS V14.01,2013-05-09 10:49:00,
2013-05-09 05:50:00,59.5,57.8,29.88,South,173,0.0,2.0,94,0.00,,---,0.00,VWS V14.01,2013-05-09 10:50:00,
2013-05-09 05:54:00,59.5,57.8,29.88,South,173,0.0,0.0,94,0.00,,---,0.00,VWS V14.01,2013-05-09 10:54:00,
2013-05-09 05:59:00,59.5,57.8,29.88,South,173,0.0,0.0,94,0.00,,---,0.00,VWS V14.01,2013-05-09 10:59:00,
2013-05-09 06:00:00,59.5,57.8,29.88,South,173,0.0,0.0,94,0.00,,---,0.00,VWS V14.01,2013-05-09 11:00:00,
2013-05-09 06:04:00,59.4,57.7,29.89,South,173,0.0,0.0,94,0.00,,---,0.00,VWS V14.01,2013-05-09 11:04:00,
2013-05-09 06:09:00,59.3,57.6,29.88,South,173,0.0,0.0,94,0.00,,---,0.00,VWS V14.01,2013-05-09 11:09:00,
2013-05-09 06:10:00,59.3,57.6,29.88,South,173,0.0,0.0,94,0.00,,---,0.00,VWS V14.01,2013-05-09 11:10:00,
2013-05-09 06:14:00,59.3,57.6,29.89,South,173,0.0,0.0,94,0.00,,---,0.00,VWS V14.01,2013-05-09 11:14:00,
2013-05-09 06:19:00,59.3,57.6,29.89,South,173,0.0,0.0,94,0.00,,---,0.00,VWS V14.01,2013-05-09 11:19:00,
2013-05-09 06:20:00,59.3,57.6,29.89,South,173,0.0,0.0,94,0.00,,---,0.00,VWS V14.01,2013-05-09 11:20:00,
2013-05-09 06:24:00,59.4,57.7,29.89,South,173,0.0,1.0,94,0.00,,---,0.00,VWS V14.01,2013-05-09 11:24:00,
2013-05-09 06:29:00,59.4,57.7,29.90,South,173,0.0,0.0,94,0.00,,---,0.00,VWS V14.01,2013-05-09 11:29:00,
2013-05-09 06:30:00,59.4,57.7,29.89,South,173,0.0,1.0,94,0.00,,---,0.00,VWS V14.01,2013-05-09 11:30:00,
2013-05-09 06:34:00,59.4,57.7,29.90,South,173,0.0,1.0,94,0.00,,---,0.00,VWS V14.01,2013-05-09 11:34:00,
2013-05-09 06:39:00,59.5,58.1,29.90,South,173,0.0,1.0,95,0.00,,---,0.00,VWS V14.01,2013-05-09 11:39:00,
2013-05-09 06:40:00,59.5,58.1,29.90,South,173,0.0,1.0,95,0.00,,---,0.00,VWS V14.01,2013-05-09 11:40:00,
2013-05-09 06:44:00,59.6,58.2,29.90,South,173,0.0,1.0,95,0.00,,---,0.00,VWS V14.01,2013-05-09 11:44:00,
2013-05-09 06:49:00,59.6,58.2,29.90,South,173,0.0,1.0,95,0.00,,---,0.00,VWS V14.01,2013-05-09 11:49:00,
2013-05-09 06:50:00,59.6,58.2,29.90,South,173,0.0,1.0,95,0.00,,---,0.00,VWS V14.01,2013-05-09 11:50:00,
2013-05-09 06:54:00,59.6,58.2,29.90,South,173,0.0,1.0,95,0.00,,---,0.00,VWS V14.01,2013-05-09 11:54:00,
2013-05-09 06:59:00,59.6,58.2,29.89,South,173,0.0,0.0,95,0.00,,---,0.00,VWS V14.01,2013-05-09 11:59:00,
2013-05-09 07:00:00,59.7,58.3,29.89,South,173,0.0,1.0,95,0.00,,---,0.00,VWS V14.01,2013-05-09 12:00:00,
2013-05-09 07:04:00,59.6,58.2,29.89,South,173,0.0,0.0,95,0.00,,---,0.00,VWS V14.01,2013-05-09 12:04:00,
2013-05-09 07:09:00,59.6,58.2,29.90,South,173,0.0,0.0,95,0.00,,---,0.00,VWS V14.01,2013-05-09 12:09:00,
2013-05-09 07:10:00,59.6,58.2,29.90,South,173,0.0,0.0,95,0.00,,---,0.00,VWS V14.01,2013-05-09 12:10:00,
2013-05-09 07:14:00,59.6,58.2,29.90,South,173,0.0,0.0,95,0.00,,---,0.00,VWS V14.01,2013-05-09 12:14:00,
2013-05-09 07:19:00,59.6,58.2,29.90,South,173,0.0,0.0,95,0.00,,---,0.00,VWS V14.01,2013-05-09 12:19:00,
2013-05-09 07:20:00,59.6,58.2,29.90,South,173,0.0,0.0,95,0.00,,---,0.00,VWS V14.01,2013-05-09 12:20:00,
2013-05-09 07:24:00,59.6,58.2,29.90,South,173,0.0,0.0,95,0.00,,---,0.00,VWS V14.01,2013-05-09 12:24:00,
2013-05-09 07:29:00,59.6,58.2,29.90,South,173,0.0,0.0,95,0.00,,---,0.00,VWS V14.01,2013-05-09 12:29:00,
2013-05-09 07:30:00,59.6,58.2,29.90,South,173,0.0,0.0,95,0.00,,---,0.00,VWS V14.01,2013-05-09 12:30:00,
2013-05-09 07:34:00,59.7,58.3,29.90,South,173,0.0,0.0,95,0.00,,---,0.00,VWS V14.01,2013-05-09 12:34:00,
2013-05-09 07:40:00,59.8,58.4,29.89,South,173,0.0,0.0,95,0.00,,---,0.00,VWS V14.01,2013-05-09 12:40:00,
2013-05-09 07:44:00,59.9,58.5,29.89,South,173,0.0,1.0,95,0.00,,---,0.00,VWS V14.01,2013-05-09 12:44:00,
2013-05-09 07:50:00,59.9,58.5,29.90,South,173,0.0,1.0,95,0.00,,---,0.00,VWS V14.01,2013-05-09 12:50:00,
2013-05-09 07:55:00,59.9,58.5,29.90,South,173,0.0,1.0,95,0.00,,---,0.00,VWS V14.01,2013-05-09 12:55:00,
2013-05-09 08:00:00,60.0,58.6,29.89,South,173,0.0,1.0,95,0.01,,---,0.01,VWS V14.01,2013-05-09 13:00:00,
2013-05-09 08:05:00,60.0,58.6,29.90,South,173,0.0,2.0,95,0.01,,---,0.01,VWS V14.01,2013-05-09 13:05:00,
2013-05-09 08:10:00,60.1,58.7,29.90,South,173,0.0,0.0,95,0.01,,---,0.01,VWS V14.01,2013-05-09 13:10:00,
2013-05-09 08:15:00,60.2,58.8,29.90,South,173,0.0,0.0,95,0.01,,---,0.01,VWS V14.01,2013-05-09 13:15:00,
2013-05-09 08:20:00,60.3,58.9,29.90,South,173,0.0,1.0,95,0.01,,---,0.01,VWS V14.01,2013-05-09 13:20:00,
2013-05-09 08:25:00,60.3,58.9,29.90,South,173,0.0,1.0,95,0.01,,---,0.01,VWS V14.01,2013-05-09 13:25:00,
2013-05-09 08:30:00,60.4,59.0,29.90,South,173,0.0,0.0,95,0.01,,---,0.01,VWS V14.01,2013-05-09 13:30:00,
2013-05-09 08:35:00,60.6,59.5,29.90,South,173,0.0,0.0,96,0.01,,---,0.01,VWS V14.01,2013-05-09 13:35:00,
2013-05-09 08:40:00,60.8,59.7,29.90,South,173,0.0,0.0,96,0.01,,---,0.01,VWS V14.01,2013-05-09 13:40:00,
2013-05-09 08:45:00,60.9,59.8,29.90,South,173,0.0,1.0,96,0.01,,---,0.01,VWS V14.01,2013-05-09 13:45:00,
2013-05-09 08:50:00,61.1,59.7,29.90,South,173,0.0,0.0,95,0.01,,---,0.01,VWS V14.01,2013-05-09 13:50:00,
2013-05-09 08:55:00,61.1,59.7,29.90,South,173,0.0,1.0,95,0.01,,---,0.01,VWS V14.01,2013-05-09 13:55:00,
2013-05-09 09:00:00,61.2,59.8,29.91,South,173,0.0,0.0,95,0.01,,---,0.01,VWS V14.01,2013-05-09 14:00:00,
2013-05-09 09:05:00,61.2,59.8,29.91,South,173,0.0,0.0,95,0.01,,---,0.01,VWS V14.01,2013-05-09 14:05:00,
2013-05-09 09:10:00,61.2,59.8,29.91,South,173,0.0,0.0,95,0.00,,---,0.01,VWS V14.01,2013-05-09 14:10:00,
2013-05-09 09:15:00,61.3,59.9,29.91,South,173,0.0,1.0,95,0.00,,---,0.01,VWS V14.01,2013-05-09 14:15:00,
2013-05-09 09:20:00,61.4,60.0,29.91,South,173,0.0,0.0,95,0.00,,---,0.01,VWS V14.01,2013-05-09 14:20:00,
2013-05-09 09:25:00,61.4,59.7,29.91,South,173,0.0,1.0,94,0.00,,---,0.01,VWS V14.01,2013-05-09 14:25:00,
2013-05-09 09:30:00,61.5,60.1,29.91,South,173,0.0,0.0,95,0.00,,---,0.01,VWS V14.01,2013-05-09 14:30:00,
2013-05-09 09:35:00,61.6,60.2,29.91,South,173,0.0,0.0,95,0.00,,---,0.01,VWS V14.01,2013-05-09 14:35:00,
2013-05-09 09:40:00,61.6,60.2,29.91,South,173,0.0,0.0,95,0.00,,---,0.01,VWS V14.01,2013-05-09 14:40:00,
2013-05-09 09:45:00,61.7,60.3,29.91,South,173,0.0,0.0,95,0.00,,---,0.01,VWS V14.01,2013-05-09 14:45:00,
2013-05-09 09:50:00,61.9,60.5,29.91,South,173,0.0,0.0,95,0.00,,---,0.01,VWS V14.01,2013-05-09 14:50:00,
2013-05-09 09:55:00,62.0,60.3,29.91,South,173,0.0,1.0,94,0.00,,---,0.01,VWS V14.01,2013-05-09 14:55:00,
2013-05-09 10:00:00,62.1,60.7,29.91,South,173,0.0,1.0,95,0.00,,---,0.01,VWS V14.01,2013-05-09 15:00:00,
2013-05-09 10:05:00,62.2,60.5,29.92,South,173,0.0,1.0,94,0.00,,---,0.01,VWS V14.01,2013-05-09 15:05:00,
2013-05-09 10:10:00,62.3,60.6,29.92,South,173,0.0,0.0,94,0.00,,---,0.01,VWS V14.01,2013-05-09 15:10:00,
2013-05-09 10:15:00,62.3,60.6,29.92,South,173,0.0,1.0,94,0.00,,---,0.01,VWS V14.01,2013-05-09 15:15:00,
2013-05-09 10:20:00,62.5,60.8,29.92,South,173,0.0,0.0,94,0.00,,---,0.01,VWS V14.01,2013-05-09 15:20:00,
2013-05-09 10:25:00,62.6,60.8,29.92,South,173,0.0,1.0,94,0.00,,---,0.01,VWS V14.01,2013-05-09 15:25:00,
2013-05-09 10:30:00,62.7,60.7,29.92,South,173,0.0,2.0,93,0.00,,---,0.01,VWS V14.01,2013-05-09 15:30:00,
2013-05-09 10:35:00,62.9,60.8,29.92,South,173,0.0,2.0,93,0.00,,---,0.01,VWS V14.01,2013-05-09 15:35:00,
2013-05-09 10:40:00,62.9,60.8,29.92,South,173,0.0,2.0,93,0.00,,---,0.01,VWS V14.01,2013-05-09 15:40:00,
2013-05-09 10:41:00,63.0,61.0,29.92,South,173,0.0,1.0,93,0.00,,---,0.01,VWS V14.01,2013-05-09 15:41:00,
2013-05-09 10:46:00,63.1,60.7,29.92,SW,236,2.0,5.0,92,0.00,,---,0.01,VWS V14.01,2013-05-09 15:46:00,
2013-05-09 10:50:00,63.1,60.4,29.92,SW,236,0.0,5.0,91,0.00,,---,0.01,VWS V14.01,2013-05-09 15:50:00,
2013-05-09 10:51:00,63.1,60.4,29.92,SW,234,0.0,1.0,91,0.00,,---,0.01,VWS V14.01,2013-05-09 15:51:00,
2013-05-09 10:56:00,63.2,60.5,29.92,SW,234,0.0,1.0,91,0.00,,---,0.01,VWS V14.01,2013-05-09 15:56:00,
2013-05-09 11:00:00,63.3,60.6,29.92,SW,234,0.0,1.0,91,0.00,,---,0.01,VWS V14.01,2013-05-09 16:00:00,
2013-05-09 11:01:00,63.4,60.7,29.92,SW,222,2.0,2.0,91,0.00,,---,0.01,VWS V14.01,2013-05-09 16:01:00,
2013-05-09 11:06:00,63.8,61.1,29.92,South,187,0.0,3.0,91,0.00,,---,0.01,VWS V14.01,2013-05-09 16:06:00,
2013-05-09 11:10:00,63.9,61.5,29.92,SSW,192,4.0,5.0,92,0.00,,---,0.01,VWS V14.01,2013-05-09 16:10:00,
2013-05-09 11:11:00,64.2,61.5,29.92,SSW,194,2.0,4.0,91,0.00,,---,0.01,VWS V14.01,2013-05-09 16:11:00,
2013-05-09 11:16:00,64.5,61.2,29.92,SSW,213,2.0,5.0,89,0.00,,---,0.01,VWS V14.01,2013-05-09 16:16:00,
2013-05-09 11:20:00,64.6,61.6,29.92,SSW,196,1.0,5.0,90,0.00,,---,0.01,VWS V14.01,2013-05-09 16:20:00,
2013-05-09 11:21:00,64.8,61.2,29.92,WSW,246,0.0,5.0,88,0.00,,---,0.01,VWS V14.01,2013-05-09 16:21:00,
2013-05-09 11:26:00,65.0,61.0,29.93,NW,309,0.0,5.0,87,0.00,,---,0.01,VWS V14.01,2013-05-09 16:26:00,
2013-05-09 11:30:00,65.0,60.7,29.93,SSW,209,2.0,5.0,86,0.00,,---,0.01,VWS V14.01,2013-05-09 16:30:00,
2013-05-09 11:31:00,65.1,60.8,29.93,SSW,209,0.0,6.0,86,0.00,,---,0.01,VWS V14.01,2013-05-09 16:31:00,
2013-05-09 11:36:00,65.2,60.6,29.92,SW,219,3.0,6.0,85,0.00,,---,0.01,VWS V14.01,2013-05-09 16:36:00,
2013-05-09 11:40:00,65.2,60.9,29.93,SW,220,0.0,6.0,86,0.00,,---,0.01,VWS V14.01,2013-05-09 16:40:00,
2013-05-09 11:41:00,65.3,60.7,29.93,WSW,250,1.0,3.0,85,0.00,,---,0.01,VWS V14.01,2013-05-09 16:41:00,
2013-05-09 11:46:00,65.3,60.0,29.93,NW,316,0.0,4.0,83,0.00,,---,0.01,VWS V14.01,2013-05-09 16:46:00,
2013-05-09 11:50:00,65.3,60.3,29.93,NW,311,0.0,4.0,84,0.00,,---,0.01,VWS V14.01,2013-05-09 16:50:00,
2013-05-09 11:51:00,65.2,59.9,29.93,NNW,332,2.0,5.0,83,0.00,,---,0.01,VWS V14.01,2013-05-09 16:51:00,
2013-05-09 11:56:00,65.0,59.7,29.93,SSW,211,0.0,5.0,83,0.00,,---,0.01,VWS V14.01,2013-05-09 16:56:00,
2013-05-09 12:00:00,65.0,59.7,29.93,SSW,207,1.0,5.0,83,0.00,,---,0.01,VWS V14.01,2013-05-09 17:00:00,
2013-05-09 12:01:00,64.9,59.6,29.93,SSW,206,0.0,4.0,83,0.00,,---,0.01,VWS V14.01,2013-05-09 17:01:00,
2013-05-09 12:06:00,64.9,60.0,29.93,SSW,213,0.0,4.0,84,0.00,,---,0.01,VWS V14.01,2013-05-09 17:06:00,
2013-05-09 12:10:00,64.9,60.3,29.93,NNW,327,5.0,5.0,85,0.00,,---,0.01,VWS V14.01,2013-05-09 17:10:00,
2013-05-09 12:11:00,64.8,59.5,29.93,NW,308,1.0,5.0,83,0.00,,---,0.01,VWS V14.01,2013-05-09 17:11:00,
2013-05-09 12:16:00,64.6,59.3,29.93,WNW,294,0.0,5.0,83,0.00,,---,0.01,VWS V14.01,2013-05-09 17:16:00,
2013-05-09 12:20:00,64.5,59.6,29.93,WNW,294,0.0,5.0,84,0.00,,---,0.01,VWS V14.01,2013-05-09 17:20:00,
2013-05-09 12:21:00,64.4,59.5,29.93,WNW,294,0.0,1.0,84,0.00,,---,0.01,VWS V14.01,2013-05-09 17:21:00,
2013-05-09 12:26:00,64.3,59.7,29.93,WNW,286,1.0,5.0,85,0.00,,---,0.01,VWS V14.01,2013-05-09 17:26:00,
2013-05-09 12:30:00,64.3,59.4,29.93,WNW,286,0.0,5.0,84,0.00,,---,0.01,VWS V14.01,2013-05-09 17:30:00,
2013-05-09 12:31:00,64.2,59.3,29.93,WNW,286,0.0,4.0,84,0.00,,---,0.01,VWS V14.01,2013-05-09 17:31:00,
2013-05-09 12:36:00,64.2,59.3,29.93,SSW,211,1.0,5.0,84,0.00,,---,0.01,VWS V14.01,2013-05-09 17:36:00,
2013-05-09 12:40:00,64.2,59.9,29.93,SSW,211,0.0,5.0,86,0.00,,---,0.01,VWS V14.01,2013-05-09 17:40:00,
2013-05-09 12:41:00,64.3,59.7,29.93,NNW,332,0.0,5.0,85,0.00,,---,0.01,VWS V14.01,2013-05-09 17:41:00,
2013-05-09 12:46:00,64.3,59.4,29.94,WNW,284,2.0,6.0,84,0.00,,---,0.01,VWS V14.01,2013-05-09 17:46:00,
2013-05-09 12:50:00,64.3,59.4,29.93,SW,222,0.0,6.0,84,0.00,,---,0.01,VWS V14.01,2013-05-09 17:50:00,
2013-05-09 12:51:00,64.3,59.7,29.93,NW,310,1.0,2.0,85,0.00,,---,0.01,VWS V14.01,2013-05-09 17:51:00,
2013-05-09 12:56:00,64.4,59.5,29.93,NW,321,6.0,6.0,84,0.00,,---,0.01,VWS V14.01,2013-05-09 17:56:00,
2013-05-09 13:00:00,64.4,59.1,29.93,WNW,284,1.0,6.0,83,0.00,,---,0.01,VWS V14.01,2013-05-09 18:00:00,
2013-05-09 13:01:00,64.5,59.9,29.93,WSW,257,2.0,4.0,85,0.00,,---,0.01,VWS V14.01,2013-05-09 18:01:00,
2013-05-09 13:06:00,64.8,59.5,29.93,WNW,288,2.0,5.0,83,0.00,,---,0.01,VWS V14.01,2013-05-09 18:06:00,
2013-05-09 13:10:00,64.9,59.6,29.93,WNW,300,1.0,7.0,83,0.00,,---,0.01,VWS V14.01,2013-05-09 18:10:00,
2013-05-09 13:11:00,65.3,60.3,29.93,West,268,3.0,3.0,84,0.00,,---,0.01,VWS V14.01,2013-05-09 18:11:00,
2013-05-09 13:16:00,65.9,60.6,29.93,WSW,250,0.0,5.0,83,0.00,,---,0.01,VWS V14.01,2013-05-09 18:16:00,
2013-05-09 13:20:00,66.1,60.8,29.93,NNW,331,5.0,5.0,83,0.00,,---,0.01,VWS V14.01,2013-05-09 18:20:00,
2013-05-09 13:21:00,66.5,60.5,29.93,West,277,5.0,8.0,81,0.00,,---,0.01,VWS V14.01,2013-05-09 18:21:00,
2013-05-09 13:26:00,66.8,60.4,29.93,West,268,4.0,8.0,80,0.00,,---,0.01,VWS V14.01,2013-05-09 18:26:00,
2013-05-09 13:30:00,66.8,60.4,29.93,WSW,254,0.0,8.0,80,0.00,,---,0.01,VWS V14.01,2013-05-09 18:30:00,
2013-05-09 13:31:00,66.8,60.4,29.93,WNW,286,0.0,4.0,80,0.00,,---,0.01,VWS V14.01,2013-05-09 18:31:00,
2013-05-09 13:36:00,67.0,60.6,29.93,SW,232,0.0,4.0,80,0.00,,---,0.01,VWS V14.01,2013-05-09 18:36:00,
2013-05-09 13:40:00,67.0,60.3,29.93,South,180,2.0,4.0,79,0.00,,---,0.01,VWS V14.01,2013-05-09 18:40:00,
2013-05-09 13:42:00,67.2,61.2,29.93,South,185,3.0,7.0,81,0.00,,---,0.01,VWS V14.01,2013-05-09 18:42:00,
2013-05-09 13:47:00,67.7,61.0,29.93,NNW,329,0.0,7.0,79,0.00,,---,0.01,VWS V14.01,2013-05-09 18:47:00,
2013-05-09 13:50:00,67.7,60.2,29.93,NW,318,2.0,7.0,77,0.00,,---,0.01,VWS V14.01,2013-05-09 18:50:00,
2013-05-09 13:52:00,67.9,60.8,29.93,NNW,329,2.0,2.0,78,0.00,,---,0.01,VWS V14.01,2013-05-09 18:52:00,
2013-05-09 13:57:00,68.4,60.5,29.93,NW,323,0.0,4.0,76,0.00,,---,0.01,VWS V14.01,2013-05-09 18:57:00,
2013-05-09 14:00:00,68.6,61.1,29.93,SW,221,6.0,7.0,77,0.00,,---,0.01,VWS V14.01,2013-05-09 19:00:00,
2013-05-09 14:02:00,69.3,62.5,29.93,SSW,206,3.0,8.0,79,0.00,,---,0.01,VWS V14.01,2013-05-09 19:02:00,
2013-05-09 14:07:00,70.1,62.6,29.93,SW,216,3.0,8.0,77,0.00,,---,0.01,VWS V14.01,2013-05-09 19:07:00,
2013-05-09 14:10:00,70.3,62.4,29.93,SSW,200,0.0,8.0,76,0.00,,---,0.01,VWS V14.01,2013-05-09 19:10:00,
2013-05-09 14:12:00,70.7,61.6,29.93,WNW,294,2.0,5.0,73,0.00,,---,0.01,VWS V14.01,2013-05-09 19:12:00,
2013-05-09 14:17:00,70.6,61.1,29.94,NW,320,1.0,7.0,72,0.00,,---,0.01,VWS V14.01,2013-05-09 19:17:00,
2013-05-09 14:20:00,70.6,61.2,29.93,West,263,4.0,7.0,72,0.00,,---,0.01,VWS V14.01,2013-05-09 19:20:00,
2013-05-09 14:22:00,70.3,61.2,29.93,West,271,2.0,6.0,73,0.00,,---,0.01,VWS V14.01,2013-05-09 19:22:00,
2013-05-09 14:27:00,70.4,62.8,29.93,SSW,213,1.0,7.0,77,0.00,,---,0.01,VWS V14.01,2013-05-09 19:27:00,
2013-05-09 14:30:00,70.5,62.6,29.93,SSW,213,2.0,7.0,76,0.00,,---,0.01,VWS V14.01,2013-05-09 19:30:00,
2013-05-09 14:32:00,71.2,62.5,29.93,SSW,212,1.0,7.0,74,0.00,,---,0.01,VWS V14.01,2013-05-09 19:32:00,
2013-05-09 14:37:00,72.0,62.1,29.93,WNW,291,1.0,7.0,71,0.00,,---,0.01,VWS V14.01,2013-05-09 19:37:00,
2013-05-09 14:40:00,72.1,61.8,29.93,NW,306,2.0,7.0,70,0.00,,---,0.01,VWS V14.01,2013-05-09 19:40:00,
2013-05-09 14:42:00,72.3,61.2,29.93,NNE,15,2.0,10.0,68,0.00,,---,0.01,VWS V14.01,2013-05-09 19:42:00,
2013-05-09 14:47:00,72.4,62.1,29.93,SSW,195,0.0,10.0,70,0.00,,---,0.01,VWS V14.01,2013-05-09 19:47:00,
2013-05-09 14:50:00,72.4,62.1,29.93,SSW,194,1.0,10.0,70,0.00,,---,0.01,VWS V14.01,2013-05-09 19:50:00,
2013-05-09 14:52:00,72.6,61.4,29.92,WNW,294,1.0,7.0,68,0.00,,---,0.01,VWS V14.01,2013-05-09 19:52:00,
2013-05-09 14:57:00,72.5,60.9,29.92,West,269,2.0,7.0,67,0.00,,---,0.01,VWS V14.01,2013-05-09 19:57:00,
2013-05-09 15:00:00,72.4,60.8,29.92,SW,215,3.0,7.0,67,0.00,,---,0.01,VWS V14.01,2013-05-09 20:00:00,
2013-05-09 15:02:00,72.4,61.2,29.92,NNW,344,0.0,8.0,68,0.00,,---,0.01,VWS V14.01,2013-05-09 20:02:00,
2013-05-09 15:07:00,72.1,61.4,29.92,NW,306,5.0,8.0,69,0.00,,---,0.01,VWS V14.01,2013-05-09 20:07:00,
2013-05-09 15:10:00,72.0,60.9,29.92,NW,309,1.0,8.0,68,0.00,,---,0.01,VWS V14.01,2013-05-09 20:10:00,
2013-05-09 15:12:00,71.4,61.1,29.92,SW,229,3.0,6.0,70,0.00,,---,0.01,VWS V14.01,2013-05-09 20:12:00,
2013-05-09 15:17:00,70.6,60.8,29.92,WNW,284,5.0,7.0,71,0.00,,---,0.01,VWS V14.01,2013-05-09 20:17:00,
2013-05-09 15:20:00,70.5,60.7,29.92,West,279,2.0,7.0,71,0.00,,---,0.01,VWS V14.01,2013-05-09 20:20:00,
2013-05-09 15:22:00,70.1,60.7,29.92,SW,223,2.0,6.0,72,0.00,,---,0.01,VWS V14.01,2013-05-09 20:22:00,
2013-05-09 15:27:00,69.6,60.6,29.92,WSW,254,0.0,7.0,73,0.00,,---,0.01,VWS V14.01,2013-05-09 20:27:00,
2013-05-09 15:30:00,69.6,60.6,29.92,WSW,254,0.0,7.0,73,0.00,,---,0.01,VWS V14.01,2013-05-09 20:30:00,
2013-05-09 15:32:00,69.4,60.8,29.92,West,269,4.0,7.0,74,0.00,,---,0.01,VWS V14.01,2013-05-09 20:32:00,
2013-05-09 15:37:00,69.2,60.6,29.92,West,273,2.0,7.0,74,0.00,,---,0.01,VWS V14.01,2013-05-09 20:37:00,
2013-05-09 15:40:00,69.2,60.6,29.92,West,273,2.0,7.0,74,0.00,,---,0.01,VWS V14.01,2013-05-09 20:40:00,
2013-05-09 15:42:00,69.2,60.6,29.92,SW,232,5.0,7.0,74,0.00,,---,0.01,VWS V14.01,2013-05-09 20:42:00,
2013-05-09 15:47:00,69.0,59.6,29.92,NNW,332,5.0,9.0,72,0.00,,---,0.01,VWS V14.01,2013-05-09 20:47:00,
2013-05-09 15:50:00,69.0,59.6,29.92,WSW,243,2.0,9.0,72,0.00,,---,0.01,VWS V14.01,2013-05-09 20:50:00,
2013-05-09 15:52:00,69.0,59.6,29.92,NW,322,4.0,9.0,72,0.00,,---,0.01,VWS V14.01,2013-05-09 20:52:00,
2013-05-09 15:57:00,69.0,59.6,29.92,North,355,6.0,9.0,72,0.00,,---,0.01,VWS V14.01,2013-05-09 20:57:00,
2013-05-09 16:00:00,69.1,59.7,29.92,North,360,2.0,9.0,72,0.00,,---,0.01,VWS V14.01,2013-05-09 21:00:00,
2013-05-09 16:02:00,69.2,59.4,29.92,West,272,2.0,6.0,71,0.00,,---,0.01,VWS V14.01,2013-05-09 21:02:00,
2013-05-09 16:07:00,69.3,59.9,29.92,West,281,4.0,7.0,72,0.00,,---,0.01,VWS V14.01,2013-05-09 21:07:00,
2013-05-09 16:10:00,69.3,59.9,29.92,West,280,0.0,7.0,72,0.00,,---,0.01,VWS V14.01,2013-05-09 21:10:00,
2013-05-09 16:12:00,69.4,60.0,29.92,WNW,283,1.0,6.0,72,0.00,,---,0.01,VWS V14.01,2013-05-09 21:12:00,
2013-05-09 16:17:00,69.7,59.9,29.92,SW,223,2.0,6.0,71,0.00,,---,0.01,VWS V14.01,2013-05-09 21:17:00,
2013-05-09 16:20:00,69.7,59.9,29.92,NNE,20,3.0,6.0,71,0.00,,---,0.01,VWS V14.01,2013-05-09 21:20:00,
2013-05-09 16:22:00,69.8,59.6,29.92,WNW,284,4.0,6.0,70,0.00,,---,0.01,VWS V14.01,2013-05-09 21:22:00,
2013-05-09 16:27:00,70.0,60.2,29.92,SSW,212,0.0,6.0,71,0.00,,---,0.01,VWS V14.01,2013-05-09 21:27:00,
2013-05-09 16:30:00,70.0,60.2,29.92,West,267,2.0,6.0,71,0.00,,---,0.01,VWS V14.01,2013-05-09 21:30:00,
2013-05-09 16:32:00,70.2,60.0,29.92,West,259,2.0,6.0,70,0.00,,---,0.01,VWS V14.01,2013-05-09 21:32:00,
2013-05-09 16:37:00,70.3,59.7,29.92,SW,232,6.0,6.0,69,0.00,,---,0.01,VWS V14.01,2013-05-09 21:37:00,
2013-05-09 16:40:00,70.3,59.7,29.92,West,259,3.0,6.0,69,0.00,,---,0.01,VWS V14.01,2013-05-09 21:40:00,
2013-05-09 16:42:00,70.3,60.1,29.93,West,270,0.0,9.0,70,0.00,,---,0.01,VWS V14.01,2013-05-09 21:42:00,
2013-05-09 16:48:00,70.4,60.2,29.93,West,267,2.0,9.0,70,0.00,,---,0.01,VWS V14.01,2013-05-09 21:48:00,
2013-05-09 16:50:00,70.4,60.2,29.93,WNW,300,2.0,9.0,70,0.00,,---,0.01,VWS V14.01,2013-05-09 21:50:00,
2013-05-09 16:53:00,70.4,60.2,29.93,WNW,290,2.0,9.0,70,0.00,,---,0.01,VWS V14.01,2013-05-09 21:53:00,
2013-05-09 16:58:00,70.4,60.2,29.93,West,270,1.0,9.0,70,0.00,,---,0.01,VWS V14.01,2013-05-09 21:58:00,
2013-05-09 17:00:00,70.4,60.2,29.93,WNW,295,2.0,9.0,70,0.00,,---,0.01,VWS V14.01,2013-05-09 22:00:00,
2013-05-09 17:03:00,70.2,59.6,29.93,West,268,2.0,6.0,69,0.00,,---,0.01,VWS V14.01,2013-05-09 22:03:00,
2013-05-09 17:08:00,70.1,59.1,29.93,WNW,283,1.0,6.0,68,0.00,,---,0.01,VWS V14.01,2013-05-09 22:08:00,
2013-05-09 17:10:00,70.1,59.1,29.93,West,277,2.0,6.0,68,0.00,,---,0.01,VWS V14.01,2013-05-09 22:10:00,
2013-05-09 17:13:00,70.0,59.4,29.92,WNW,289,1.0,7.0,69,0.00,,---,0.01,VWS V14.01,2013-05-09 22:13:00,
2013-05-09 17:18:00,69.8,59.2,29.93,West,275,1.0,9.0,69,0.00,,---,0.01,VWS V14.01,2013-05-09 22:18:00,
2013-05-09 17:20:00,69.8,59.2,29.93,West,275,2.0,9.0,69,0.00,,---,0.01,VWS V14.01,2013-05-09 22:20:00,
2013-05-09 17:23:00,69.7,59.1,29.93,West,281,5.0,5.0,69,0.00,,---,0.01,VWS V14.01,2013-05-09 22:23:00,
2013-05-09 17:28:00,69.5,58.9,29.93,NW,312,0.0,6.0,69,0.00,,---,0.01,VWS V14.01,2013-05-09 22:28:00,
2013-05-09 17:30:00,69.5,58.9,29.93,NW,312,0.0,6.0,69,0.00,,---,0.01,VWS V14.01,2013-05-09 22:30:00,
2013-05-09 17:33:00,69.5,59.3,29.93,NW,312,0.0,2.0,70,0.00,,---,0.01,VWS V14.01,2013-05-09 22:33:00,
2013-05-09 17:38:00,69.5,58.9,29.92,West,275,1.0,4.0,69,0.00,,---,0.01,VWS V14.01,2013-05-09 22:38:00,
2013-05-09 17:40:00,69.5,58.9,29.92,West,275,1.0,4.0,69,0.00,,---,0.01,VWS V14.01,2013-05-09 22:40:00,
2013-05-09 17:43:00,69.4,59.2,29.93,NW,316,1.0,4.0,70,0.00,,---,0.01,VWS V14.01,2013-05-09 22:43:00,
2013-05-09 17:48:00,69.2,59.0,29.92,NW,311,1.0,7.0,70,0.01,,---,0.02,VWS V14.01,2013-05-09 22:48:00,
2013-05-09 17:50:00,69.2,59.0,29.92,NW,311,1.0,7.0,70,0.01,,---,0.02,VWS V14.01,2013-05-09 22:50:00,
2013-05-09 17:53:00,69.2,59.8,29.92,SW,227,3.0,4.0,72,0.01,,---,0.02,VWS V14.01,2013-05-09 22:53:00,
2013-05-09 17:58:00,69.2,59.4,29.92,WNW,290,0.0,5.0,71,0.01,,---,0.02,VWS V14.01,2013-05-09 22:58:00,
2013-05-09 18:00:00,69.2,59.4,29.92,WNW,290,0.0,5.0,71,0.01,,---,0.02,VWS V14.01,2013-05-09 23:00:00,
2013-05-09 18:03:00,69.2,59.0,29.92,SSW,206,0.0,4.0,70,0.01,,---,0.02,VWS V14.01,2013-05-09 23:03:00,
2013-05-09 18:08:00,69.2,58.6,29.92,North,349,0.0,0.0,69,0.01,,---,0.02,VWS V14.01,2013-05-09 23:08:00,
2013-05-09 18:10:00,69.2,58.6,29.92,North,349,0.0,6.0,69,0.01,,---,0.02,VWS V14.01,2013-05-09 23:10:00,
2013-05-09 18:13:00,69.3,58.7,29.92,NNE,13,1.0,4.0,69,0.01,,---,0.02,VWS V14.01,2013-05-09 23:13:00,
2013-05-09 18:18:00,69.3,58.7,29.92,WNW,296,0.0,1.0,69,0.01,,---,0.02,VWS V14.01,2013-05-09 23:18:00,
2013-05-09 18:20:00,69.3,58.7,29.92,WNW,296,1.0,5.0,69,0.01,,---,0.02,VWS V14.01,2013-05-09 23:20:00,
2013-05-09 18:23:00,69.2,58.6,29.92,NNW,338,0.0,5.0,69,0.01,,---,0.02,VWS V14.01,2013-05-09 23:23:00,
2013-05-09 18:28:00,69.1,58.9,29.92,NW,318,2.0,2.0,70,0.01,,---,0.02,VWS V14.01,2013-05-09 23:28:00,
2013-05-09 18:30:00,69.1,58.9,29.92,NNW,331,2.0,5.0,70,0.01,,---,0.02,VWS V14.01,2013-05-09 23:30:00,
2013-05-09 18:33:00,69.0,58.8,29.92,NW,313,0.0,4.0,70,0.01,,---,0.02,VWS V14.01,2013-05-09 23:33:00,
2013-05-09 18:38:00,69.0,58.4,29.92,WNW,292,1.0,1.0,69,0.01,,---,0.02,VWS V14.01,2013-05-09 23:38:00,
2013-05-09 18:40:00,69.0,58.4,29.92,WNW,292,1.0,4.0,69,0.01,,---,0.02,VWS V14.01,2013-05-09 23:40:00,
2013-05-09 18:43:00,68.9,58.3,29.92,North,360,0.0,6.0,69,0.01,,---,0.02,VWS V14.01,2013-05-09 23:43:00,
2013-05-09 18:48:00,68.8,58.6,29.92,NW,311,0.0,1.0,70,0.00,,---,0.02,VWS V14.01,2013-05-09 23:48:00,
2013-05-09 18:50:00,68.8,58.6,29.92,NW,311,0.0,6.0,70,0.01,,---,0.02,VWS V14.01,2013-05-09 23:50:00,
2013-05-09 18:53:00,68.8,58.6,29.92,NW,326,0.0,4.0,70,0.00,,---,0.02,VWS V14.01,2013-05-09 23:53:00,
2013-05-09 18:58:00,68.8,59.0,29.92,WNW,302,0.0,0.0,71,0.00,,---,0.02,VWS V14.01,2013-05-09 23:58:00,
2013-05-09 19:00:00,68.8,59.0,29.92,WNW,302,0.0,4.0,71,0.00,,---,0.02,VWS V14.01,2013-05-10 00:00:00,
2013-05-09 19:03:00,68.7,59.3,29.92,WNW,298,1.0,5.0,72,0.00,,---,0.02,VWS V14.01,2013-05-10 00:03:00,
2013-05-09 19:08:00,68.7,59.3,29.93,WNW,299,1.0,2.0,72,0.00,,---,0.02,VWS V14.01,2013-05-10 00:08:00,
2013-05-09 19:10:00,68.7,59.3,29.93,WNW,299,1.0,5.0,72,0.00,,---,0.02,VWS V14.01,2013-05-10 00:10:00,
2013-05-09 19:13:00,68.6,59.2,29.93,NNW,329,0.0,4.0,72,0.00,,---,0.02,VWS V14.01,2013-05-10 00:13:00,
2013-05-09 19:18:00,68.6,59.6,29.93,NW,315,0.0,1.0,73,0.00,,---,0.02,VWS V14.01,2013-05-10 00:18:00,
2013-05-09 19:20:00,68.6,59.6,29.93,NW,315,0.0,4.0,73,0.00,,---,0.02,VWS V14.01,2013-05-10 00:20:00,
2013-05-09 19:23:00,68.4,59.4,29.93,NW,311,1.0,4.0,73,0.00,,---,0.02,VWS V14.01,2013-05-10 00:23:00,
2013-05-09 19:28:00,68.3,59.7,29.93,NW,311,0.0,0.0,74,0.00,,---,0.02,VWS V14.01,2013-05-10 00:28:00,
2013-05-09 19:30:00,68.3,59.7,29.93,NW,311,0.0,4.0,74,0.00,,---,0.02,VWS V14.01,2013-05-10 00:30:00,
2013-05-09 19:33:00,68.2,59.6,29.93,NW,311,0.0,1.0,74,0.00,,---,0.02,VWS V14.01,2013-05-10 00:33:00,
2013-05-09 19:38:00,68.1,59.9,29.93,NW,311,0.0,0.0,75,0.00,,---,0.02,VWS V14.01,2013-05-10 00:38:00,
2013-05-09 19:40:00,68.1,59.9,29.93,NW,311,0.0,1.0,75,0.00,,---,0.02,VWS V14.01,2013-05-10 00:40:00,
2013-05-09 19:43:00,68.0,59.8,29.93,NW,311,0.0,1.0,75,0.00,,---,0.02,VWS V14.01,2013-05-10 00:43:00,
2013-05-09 19:48:00,67.9,59.3,29.93,NW,311,1.0,1.0,74,0.00,,---,0.02,VWS V14.01,2013-05-10 00:48:00,
2013-05-09 19:50:00,67.9,59.7,29.93,NW,311,0.0,1.0,75,0.00,,---,0.02,VWS V14.01,2013-05-10 00:50:00,
2013-05-09 19:53:00,67.8,59.2,29.93,NW,311,0.0,2.0,74,0.00,,---,0.02,VWS V14.01,2013-05-10 00:53:00,
2013-05-09 19:58:00,67.6,58.7,29.93,WSW,246,1.0,3.0,73,0.00,,---,0.02,VWS V14.01,2013-05-10 00:58:00,
2013-05-09 20:00:00,67.7,58.7,29.93,NE,34,0.0,4.0,73,0.00,,---,0.02,VWS V14.01,2013-05-10 01:00:00,
2013-05-09 20:04:00,67.4,58.1,29.93,WNW,292,1.0,3.0,72,0.00,,---,0.02,VWS V14.01,2013-05-10 01:04:00,
2013-05-09 20:09:00,67.1,58.2,29.94,North,355,0.0,0.0,73,0.00,,---,0.02,VWS V14.01,2013-05-10 01:09:00,
2013-05-09 20:10:00,67.2,58.3,29.94,North,355,0.0,3.0,73,0.00,,---,0.02,VWS V14.01,2013-05-10 01:10:00,
2013-05-09 20:14:00,66.8,57.9,29.94,North,355,0.0,2.0,73,0.00,,---,0.02,VWS V14.01,2013-05-10 01:14:00,
2013-05-09 20:19:00,66.5,57.2,29.94,North,355,1.0,2.0,72,0.00,,---,0.02,VWS V14.01,2013-05-10 01:19:00,
2013-05-09 20:20:00,66.6,57.7,29.94,North,355,0.0,2.0,73,0.00,,---,0.02,VWS V14.01,2013-05-10 01:20:00,
2013-05-09 20:24:00,66.2,56.1,29.94,West,263,4.0,4.0,70,0.00,,---,0.02,VWS V14.01,2013-05-10 01:24:00,
2013-05-09 20:29:00,65.8,55.8,29.94,West,279,1.0,2.0,70,0.00,,---,0.02,VWS V14.01,2013-05-10 01:29:00,
2013-05-09 20:30:00,65.9,55.8,29.94,NE,48,1.0,6.0,70,0.00,,---,0.02,VWS V14.01,2013-05-10 01:30:00,
2013-05-09 20:34:00,65.6,56.0,29.94,NNE,33,2.0,2.0,71,0.00,,---,0.02,VWS V14.01,2013-05-10 01:34:00,
2013-05-09 20:39:00,65.4,56.2,29.94,WNW,291,1.0,4.0,72,0.00,,---,0.02,VWS V14.01,2013-05-10 01:39:00,
2013-05-09 20:40:00,65.4,56.2,29.94,West,266,0.0,5.0,72,0.00,,---,0.02,VWS V14.01,2013-05-10 01:40:00,
2013-05-09 20:44:00,65.2,56.3,29.94,West,275,0.0,4.0,73,0.00,,---,0.02,VWS V14.01,2013-05-10 01:44:00,
2013-05-09 20:49:00,65.0,56.5,29.94,NE,38,1.0,4.0,74,0.00,,---,0.02,VWS V14.01,2013-05-10 01:49:00,
2013-05-09 20:50:00,65.1,56.6,29.93,West,274,0.0,4.0,74,0.00,,---,0.02,VWS V14.01,2013-05-10 01:50:00,
2013-05-09 20:54:00,64.9,56.8,29.94,NW,323,0.0,4.0,75,0.00,,---,0.02,VWS V14.01,2013-05-10 01:54:00,
2013-05-09 20:59:00,64.7,57.0,29.94,NNE,12,0.0,1.0,76,0.00,,---,0.02,VWS V14.01,2013-05-10 01:59:00,
2013-05-09 21:00:00,64.7,57.0,29.94,North,5,0.0,4.0,76,0.00,,---,0.02,VWS V14.01,2013-05-10 02:00:00,
2013-05-09 21:04:00,64.5,56.8,29.94,West,261,0.0,2.0,76,0.00,,---,0.02,VWS V14.01,2013-05-10 02:04:00,
2013-05-09 21:09:00,64.3,57.0,29.94,NNW,348,0.0,2.0,77,0.00,,---,0.02,VWS V14.01,2013-05-10 02:09:00,
2013-05-09 21:10:00,64.3,56.9,29.94,North,349,2.0,2.0,77,0.00,,---,0.02,VWS V14.01,2013-05-10 02:10:00,
2013-05-09 21:14:00,64.1,56.8,29.94,NNW,348,0.0,2.0,77,0.00,,---,0.02,VWS V14.01,2013-05-10 02:14:00,
2013-05-09 21:19:00,63.9,56.6,29.94,North,349,0.0,0.0,77,0.00,,---,0.02,VWS V14.01,2013-05-10 02:19:00,
2013-05-09 21:20:00,64.0,56.7,29.94,North,349,0.0,2.0,77,0.00,,---,0.02,VWS V14.01,2013-05-10 02:20:00,
2013-05-09 21:24:00,63.8,56.8,29.94,North,349,0.0,1.0,78,0.00,,---,0.02,VWS V14.01,2013-05-10 02:24:00,
2013-05-09 21:29:00,63.6,56.6,29.95,NNW,348,0.0,0.0,78,0.00,,---,0.02,VWS V14.01,2013-05-10 02:29:00,
2013-05-09 21:30:00,63.6,56.6,29.94,North,349,0.0,1.0,78,0.00,,---,0.02,VWS V14.01,2013-05-10 02:30:00,
2013-05-09 21:34:00,63.4,56.4,29.95,NNW,348,0.0,0.0,78,0.00,,---,0.02,VWS V14.01,2013-05-10 02:34:00,
2013-05-09 21:39:00,63.2,56.6,29.95,NNW,348,0.0,0.0,79,0.00,,---,0.02,VWS V14.01,2013-05-10 02:39:00,
2013-05-09 21:40:00,63.2,56.6,29.95,North,349,0.0,0.0,79,0.00,,---,0.02,VWS V14.01,2013-05-10 02:40:00,
2013-05-09 21:44:00,63.0,56.4,29.95,North,349,0.0,0.0,79,0.00,,---,0.02,VWS V14.01,2013-05-10 02:44:00,
2013-05-09 21:49:00,62.8,56.5,29.95,North,349,0.0,0.0,80,0.00,,---,0.02,VWS V14.01,2013-05-10 02:49:00,
2013-05-09 21:50:00,62.9,56.6,29.95,North,349,0.0,0.0,80,0.00,,---,0.02,VWS V14.01,2013-05-10 02:50:00,
2013-05-09 21:54:00,62.5,56.2,29.96,North,349,0.0,0.0,80,0.00,,---,0.02,VWS V14.01,2013-05-10 02:54:00,
2013-05-09 21:59:00,62.3,56.4,29.96,North,349,0.0,0.0,81,0.00,,---,0.02,VWS V14.01,2013-05-10 02:59:00,
2013-05-09 22:00:00,62.4,56.5,29.96,North,349,0.0,0.0,81,0.00,,---,0.02,VWS V14.01,2013-05-10 03:00:00,
2013-05-09 22:04:00,62.1,56.5,29.96,North,349,0.0,0.0,82,0.00,,---,0.02,VWS V14.01,2013-05-10 03:04:00,
2013-05-09 22:09:00,61.8,56.6,29.97,North,349,0.0,0.0,83,0.00,,---,0.02,VWS V14.01,2013-05-10 03:09:00,
2013-05-09 22:10:00,61.9,56.3,29.96,North,349,0.0,0.0,82,0.00,,---,0.02,VWS V14.01,2013-05-10 03:10:00,
2013-05-09 22:14:00,61.6,56.4,29.96,NNW,348,0.0,1.0,83,0.00,,---,0.02,VWS V14.01,2013-05-10 03:14:00,
2013-05-09 22:19:00,61.3,56.4,29.96,NNW,344,0.0,1.0,84,0.00,,---,0.02,VWS V14.01,2013-05-10 03:19:00,
2013-05-09 22:20:00,61.4,56.5,29.96,NNW,344,0.0,2.0,84,0.00,,---,0.02,VWS V14.01,2013-05-10 03:20:00,
2013-05-09 22:24:00,61.2,56.3,29.95,West,277,2.0,5.0,84,0.00,,---,0.02,VWS V14.01,2013-05-10 03:24:00,
2013-05-09 22:29:00,61.2,56.7,29.95,NW,313,0.0,2.0,85,0.00,,---,0.02,VWS V14.01,2013-05-10 03:29:00,
2013-05-09 22:30:00,61.2,56.7,29.95,NW,313,0.0,5.0,85,0.00,,---,0.02,VWS V14.01,2013-05-10 03:30:00,
2013-05-09 22:34:00,61.1,56.6,29.95,West,278,1.0,4.0,85,0.00,,---,0.02,VWS V14.01,2013-05-10 03:34:00,
2013-05-09 22:40:00,61.1,56.6,29.95,West,278,0.0,2.0,85,0.00,,---,0.02,VWS V14.01,2013-05-10 03:40:00,
2013-05-09 22:45:00,61.1,56.6,29.95,West,278,0.0,4.0,85,0.00,,---,0.02,VWS V14.01,2013-05-10 03:45:00,
2013-05-09 22:50:00,60.9,56.4,29.95,West,278,0.0,1.0,85,0.00,,---,0.02,VWS V14.01,2013-05-10 03:50:00,
2013-05-09 22:55:00,60.9,56.4,29.95,West,278,1.0,2.0,85,0.00,,---,0.02,VWS V14.01,2013-05-10 03:55:00,
2013-05-09 23:00:00,60.8,56.3,29.95,West,278,0.0,4.0,85,0.00,,---,0.02,VWS V14.01,2013-05-10 04:00:00,
2013-05-09 23:01:00,60.8,56.3,29.95,West,278,0.0,4.0,85,0.00,,---,0.02,VWS V14.01,2013-05-10 04:01:00,
2013-05-09 23:06:00,60.6,56.1,29.96,West,278,0.0,4.0,85,0.00,,---,0.02,VWS V14.01,2013-05-10 04:06:00,
2013-05-09 23:10:00,60.6,56.1,29.96,West,278,0.0,4.0,85,0.00,,---,0.02,VWS V14.01,2013-05-10 04:10:00,
2013-05-09 23:12:00,60.5,56.0,29.96,West,278,0.0,0.0,85,0.00,,---,0.02,VWS V14.01,2013-05-10 04:12:00,
2013-05-09 23:17:00,60.4,56.2,29.97,West,278,0.0,0.0,86,0.00,,---,0.02,VWS V14.01,2013-05-10 04:17:00,
2013-05-09 23:20:00,60.4,56.2,29.96,West,278,0.0,0.0,86,0.00,,---,0.02,VWS V14.01,2013-05-10 04:20:00,
2013-05-09 23:22:00,60.2,56.0,29.97,West,278,0.0,0.0,86,0.00,,---,0.02,VWS V14.01,2013-05-10 04:22:00,
2013-05-09 23:27:00,60.1,55.9,29.97,West,278,0.0,1.0,86,0.00,,---,0.02,VWS V14.01,2013-05-10 04:27:00,
2013-05-09 23:30:00,60.0,55.8,29.97,West,278,1.0,1.0,86,0.00,,---,0.02,VWS V14.01,2013-05-10 04:30:00,
2013-05-09 23:32:00,59.9,56.0,29.97,West,278,0.0,2.0,87,0.00,,---,0.02,VWS V14.01,2013-05-10 04:32:00,
2013-05-09 23:37:00,59.8,55.9,29.97,West,278,0.0,2.0,87,0.00,,---,0.02,VWS V14.01,2013-05-10 04:37:00,
2013-05-09 23:40:00,59.8,55.9,29.97,West,278,0.0,2.0,87,0.00,,---,0.02,VWS V14.01,2013-05-10 04:40:00,
2013-05-09 23:42:00,59.8,55.9,29.97,West,278,0.0,1.0,87,0.00,,---,0.02,VWS V14.01,2013-05-10 04:42:00,
2013-05-09 23:47:00,59.7,55.8,29.98,West,278,0.0,1.0,87,0.00,,---,0.02,VWS V14.01,2013-05-10 04:47:00,
2013-05-09 23:50:00,59.7,55.8,29.98,West,278,0.0,2.0,87,0.00,,---,0.02,VWS V14.01,2013-05-10 04:50:00,
2013-05-09 23:52:00,59.6,56.0,29.98,West,278,0.0,2.0,88,0.00,,---,0.02,VWS V14.01,2013-05-10 04:52:00,
2013-05-09 23:57:00,59.5,56.0,29.97,West,278,0.0,2.0,88,0.00,,---,0.02,VWS V14.01,2013-05-10 04:57:00,